Regional Weather Roundup
Issued by NWS

Home | Current Version | Previous Version | Text Only | Print | Product List | Glossary Off
Versions: 1 2 3 4 5 6 7 8 9 10 11 12 13 14 15 16 17 18 19 20 21 22 23 24 25 26 27 28 29 30 31 32 33 34 35 36 37 38 39 40 41 42 43 44 45 46 47 48 49 50

000
ASUS45 KBOU 180310
RWRCO

WEATHER ROUNDUP FOR COLORADO
NATIONAL WEATHER SERVICE DENVER/BOULDER CO
800 PM MST FRI NOV 17 2017

NOTE: "FAIR" INDICATES FEW OR NO CLOUDS BELOW 12000 FEET WITH NO
SIGNIFICANT WEATHER AND/OR OBSTRUCTIONS TO VISIBILITY.

COZ001>005-013-030-031-180400-
...NORTHWEST COLORADO...

CITY           SKY/WX    TMP DP  RH WIND       PRES   REMARKS
CRAIG          CLOUDY    30  25  81 SW6       30.00R WCI  24
HAYDEN         FLURRIES  27  25  92 SW7       29.99R WCI  19
MEEKER         CLOUDY    31  23  72 MISG      30.01R
RABBIT EARS PA HVY SNOW  16  14  93 MISG      29.86F VSB 1/4
STEAMBOAT SPGS CLOUDY    26  24  91 W12       29.96F WCI  16
WALDEN         CLOUDY    23  19  86 W12       29.92R WCI  12
$$

COZ006>008-011-180400-
...WEST CENTRAL VALLEYS...

CITY           SKY/WX    TMP DP  RH WIND       PRES   REMARKS
GRAND JUNCTION LGT RAIN  40  31  70 NW15G25   30.04R
MONTROSE       RAIN      37  34  89 NW32G47   29.98R FOG
EAGLE          FLURRIES  33  27  78 SW12      29.98R WCI  24
RIFLE          LGT SNOW  33  32  96 W7        30.04R VSB 3/4 WCI  27
DELTA          CLOUDY    41  34  76 W32G44    29.94R HAZE
NUCLA          LGT RAIN  43  37  81 NW23G35   29.97R
$$

COZ017>023-064>068-180400-
...SOUTHWEST COLORADO...

CITY           SKY/WX    TMP DP  RH WIND       PRES   REMARKS
DURANGO        MOCLDY    49  35  58 SW20G29   29.88S
CORTEZ         CLOUDY    54  36  50 SW18G28   29.89R
PAGOSA SPRINGS CLOUDY    47  33  58 SW21G30   29.88S
TELLURIDE      LGT SNOW  35  32  88 NW21G37   29.97R WCI  24
WOLF CREEK PAS HVY SNOW  28  28 100 SW30G40   29.94F VSB 1/4 WCI  13
$$

COZ009-010-012-014-032>034-037-058>063-180400-
...CENTRAL COLORADO...

CITY           SKY/WX    TMP DP  RH WIND       PRES   REMARKS
ASPEN          LGT SNOW  33  30  88 NW13G23   29.86R VSB 1   WCI  24
BUENA VISTA    LGT SNOW  35  32  90 N3        29.76R
COPPER MTN     CLOUDY    21  18  86 MISG      29.86R
BERTHOUD PASS  HVY SNOW  12   1  62 MISG      29.81R VSB<1/4
COTTONWOOD PAS HVY SNOW  37  36  93 W6        29.78R VSB 1/4
GUNNISON       LGT RAIN  40  34  79 W15       29.78R
KREMMLING      LGT SNOW  34  28  80 NW21G30   29.94R WCI  22
LEADVILLE      SNOW      22  19  89 N22G35    29.82S VSB 1/4 WCI   6
MONARCH PASS     N/A     27  23  86 SW40G71   29.89R WCI   8
SALIDA         CLOUDY    49  26  40 W10G17    29.79R
SUNLIGHT       CLOUDY    18  16  93 MISG      29.96R
WILKERSON PASS HVY SNOW  28  27  93 SW13G22   29.83S VSB 1/4 WCI  18
$$

COZ069>075-180400-
...SAN LUIS VALLEY/SANGRE DE CRISTO MOUNTAINS...

CITY           SKY/WX    TMP DP  RH WIND       PRES   REMARKS
ALAMOSA        FAIR      45  30  55 W23G33    29.79F
DEL NORTE      FAIR      40  33  75 W14       29.80F
LA VETA PASS   CLOUDY    34  30  86 S32G48      N/A  WCI  20
SAGUACHE       FAIR      37  27  65 W3        29.76F
$$

COZ035-036-038>040-180400-
...NORTHERN COLORADO FRONT RANGE...

CITY           SKY/WX    TMP DP  RH WIND       PRES   REMARKS
DENVER INTL AP LGT RAIN  38  34  85 N13       29.78R
DMNS CITY PARK   N/A     38  36  95 E3G13     29.80R
AURORA         LGT RAIN  35  35  99 NE7       29.80R WCI  29
FRONT RANGE AP NOT AVBL
ERIE MUNI ARPT RAIN      41  38  89 S7        29.82R
BOULDER MUN AP CLOUDY    39  37  93 CALM      29.78R
CENTENNIAL     LGT SNOW  34  33  96 NE8       29.79R FOG     WCI  27
BROOMFIELD     CLOUDY    39  37  93 SW3       29.79R
FORT COLLINS   MOCLDY    40  31  70 N25G32    29.79R
LONGMONT       CLOUDY    42  38  84 CALM      29.81R
$$

COZ041-046-047-076>085-087-088-180400-
...PIKES PEAK/PALMER DIVIDE AND SOUTHERN FOOTHILLS...

CITY           SKY/WX    TMP DP  RH WIND       PRES   REMARKS
COLO. SPRINGS  FAIR      42  33  70 NE26G33   29.70R
A. F. ACADEMY  LGT RAIN  39  32  75 N17       29.74R
SCHRIEVER AFB  MOCLDY    41  33  73 NE20G26   29.70R
CHEYENNE MTN   FAIR      41  33  73 NW15G21   29.67R
ELLICOTT       NOT AVBL
FALCON         CLOUDY    38  33  81 N16G23    29.74R
FORT CARSON    FAIR      46  34  63 N17       29.68R
LIMON          FAIR      41  36  82 N28G39    29.73R
MONUMENT HILL  LGT SNOW  32  32 100 N13G20    29.80R VSB 3/4 WCI  22
CANON CITY     FAIR      46  32  57 SE7       29.64R
WALSENBURG     MOCLDY    57  32  38 SW29G35   29.70F
TRINIDAD       FAIR      57  30  35 W17G30    29.70R
$$

COZ042>045-048>051-090-091-180400-
...NORTHEAST COLORADO...

CITY           SKY/WX    TMP DP  RH WIND       PRES   REMARKS
GREELEY ARPT   FAIR      42  31  64 NW29G37   29.76R
AKRON          LGT RAIN  39  37  92 N14       29.73S
BURLINGTON     FAIR      42  31  64 N12       29.68R
WRAY           NOT AVBL
YUMA           LGT RAIN  39  37  93 N9        29.72S
STERLING       CLOUDY    41  41 100 W3        29.73R
HOLYOKE        DRIZZLE   43  34  70 N8        29.72R
FORT MORGAN    CLOUDY    41  34  77 N5        29.74F
$$

COZ086-089-092>099-180400-
...SOUTHEAST COLORADO...

CITY           SKY/WX    TMP DP  RH WIND       PRES   REMARKS
PUEBLO         FAIR      49  31  49 NW8       29.62R
LA JUNTA       FAIR      59  34  39 W14       29.60R
LAMAR          FAIR      64  33  31 W22G31    29.53R
SPRINGFIELD      N/A     51  36  56 SW9       29.63S
$$



USA.gov is the U.S. government's official web portal to all federal, state and local government web resources and services.